Precipitable_Water
0.36 0.36 0.36 0.37 0.36 0.34 0.33 0.32 0.30 0.27 0.29 0.27 0.23 0.22 0.26 0.22 0.18 0.14 0.19 0.21 0.18 0.19 0.21 0.23 0.23 0.23 0.23 0.23 0.23 0.25 0.26 0.25 0.26 0.28 0.30 0.30 0.29 0.33 0.36 0.39 0.44 0.50 0.53 0.56 0.60 0.64 0.70 0.80 0.85 0.92 1.03 1.13 1.21 1.25 1.27 1.31 1.32 1.32 1.36 1.36 1.37 1.38 1.39 1.35 1.32 1.34 1.39 1.44 1.46 1.46 1.48 1.50 1.51 1.53 1.53 1.52 1.49 1.43 1.34 1.22 1.17 1.14 1.13 1.13 1.12 1.13 1.17
0.34 0.35 0.36 0.37 0.35 0.35 0.33 0.32 0.31 0.30 0.29 0.27 0.28 0.26 0.24 0.24 0.22 0.22 0.21 0.22 0.20 0.21 0.21 0.22 0.23 0.25 0.25 0.25 0.27 0.27 0.25 0.24 0.26 0.26 0.25 0.25 0.27 0.29 0.32 0.37 0.42 0.46 0.50 0.54 0.59 0.62 0.66 0.72 0.82 0.88 0.95 1.05 1.12 1.17 1.22 1.27 1.27 1.28 1.33 1.33 1.33 1.36 1.35 1.33 1.35 1.39 1.42 1.44 1.46 1.47 1.46 1.46 1.49 1.53 1.54 1.54 1.51 1.45 1.37 1.28 1.21 1.19 1.18 1.18 1.16 1.14 1.15
0.31 0.33 0.36 0.37 0.35 0.34 0.31 0.32 0.31 0.31 0.30 0.29 0.29 0.28 0.27 0.26 0.24 0.23 0.23 0.23 0.22 0.25 0.26 0.25 0.26 0.27 0.27 0.26 0.25 0.26 0.26 0.25 0.25 0.25 0.25 0.26 0.27 0.29 0.32 0.36 0.41 0.44 0.49 0.53 0.59 0.63 0.66 0.69 0.75 0.83 0.89 0.99 1.08 1.12 1.16 1.20 1.21 1.25 1.28 1.27 1.30 1.32 1.29 1.32 1.37 1.41 1.42 1.43 1.46 1.45 1.46 1.48 1.51 1.54 1.54 1.55 1.54 1.50 1.42 1.33 1.24 1.20 1.18 1.15 1.16 1.18 1.17
0.27 0.32 0.33 0.33 0.33 0.32 0.31 0.30 0.30 0.30 0.29 0.26 0.27 0.26 0.29 0.27 0.25 0.25 0.23 0.21 0.22 0.28 0.28 0.27 0.27 0.27 0.26 0.24 0.24 0.25 0.25 0.26 0.26 0.26 0.26 0.26 0.28 0.30 0.33 0.36 0.39 0.42 0.45 0.49 0.53 0.56 0.62 0.71 0.77 0.80 0.84 0.93 1.01 1.05 1.11 1.13 1.17 1.23 1.25 1.25 1.25 1.27 1.28 1.35 1.38 1.39 1.40 1.43 1.44 1.44 1.48 1.47 1.50 1.54 1.57 1.56 1.54 1.52 1.47 1.39 1.32 1.27 1.18 1.15 1.16 1.17 1.17
0.25 0.30 0.32 0.31 0.31 0.30 0.25 0.26 0.29 0.29 0.29 0.29 0.31 0.31 0.31 0.30 0.30 0.25 0.22 0.23 0.29 0.27 0.29 0.26 0.26 0.26 0.26 0.26 0.25 0.24 0.25 0.27 0.28 0.28 0.28 0.29 0.29 0.30 0.33 0.35 0.37 0.38 0.40 0.45 0.49 0.54 0.60 0.71 0.77 0.80 0.82 0.90 0.95 0.99 1.01 1.05 1.13 1.16 1.17 1.18 1.20 1.22 1.28 1.32 1.35 1.39 1.42 1.42 1.42 1.45 1.46 1.49 1.54 1.56 1.56 1.56 1.55 1.54 1.50 1.49 1.41 1.30 1.23 1.18 1.14 1.16 1.16
0.26 0.29 0.30 0.31 0.27 0.20 0.22 0.35 0.40 0.38 0.33 0.32 0.27 0.25 0.28 0.30 0.31 0.29 0.31 0.30 0.30 0.29 0.29 0.28 0.27 0.26 0.26 0.26 0.28 0.30 0.30 0.30 0.31 0.31 0.30 0.30 0.30 0.32 0.34 0.38 0.40 0.41 0.43 0.45 0.49 0.53 0.58 0.68 0.77 0.83 0.88 0.89 0.94 1.00 1.05 1.12 1.13 1.13 1.16 1.17 1.19 1.20 1.27 1.30 1.33 1.37 1.41 1.41 1.42 1.45 1.49 1.53 1.55 1.55 1.54 1.52 1.55 1.58 1.58 1.58 1.49 1.37 1.30 1.23 1.20 1.16 1.14
0.26 0.29 0.29 0.25 0.20 0.20 0.33 0.39 0.46 0.49 0.46 0.45 0.40 0.39 0.36 0.32 0.32 0.31 0.30 0.30 0.31 0.31 0.31 0.31 0.30 0.29 0.29 0.32 0.35 0.33 0.36 0.37 0.34 0.33 0.33 0.34 0.34 0.35 0.38 0.40 0.43 0.44 0.45 0.48 0.51 0.53 0.57 0.66 0.78 0.86 0.88 0.92 0.95 0.99 1.04 1.05 1.09 1.12 1.15 1.16 1.18 1.21 1.24 1.30 1.36 1.40 1.41 1.42 1.43 1.48 1.53 1.55 1.55 1.53 1.52 1.55 1.57 1.59 1.59 1.57 1.53 1.47 1.36 1.28 1.26 1.23 1.19
0.30 0.27 0.27 0.19 0.19 0.30 0.33 0.37 0.48 0.54 0.52 0.52 0.47 0.38 0.40 0.42 0.40 0.37 0.30 0.30 0.31 0.32 0.32 0.33 0.33 0.32 0.38 0.38 0.42 0.44 0.48 0.50 0.46 0.42 0.39 0.41 0.42 0.40 0.43 0.43 0.45 0.46 0.46 0.47 0.49 0.53 0.62 0.68 0.75 0.83 0.85 0.91 0.95 0.96 1.02 1.04 1.08 1.13 1.17 1.17 1.19 1.25 1.28 1.32 1.34 1.38 1.41 1.44 1.46 1.50 1.53 1.55 1.53 1.51 1.53 1.54 1.55 1.61 1.61 1.61 1.62 1.61 1.54 1.44 1.33 1.27 1.24
0.24 0.26 0.26 0.24 0.30 0.29 0.29 0.36 0.43 0.50 0.42 0.46 0.42 0.32 0.41 0.48 0.54 0.49 0.43 0.39 0.36 0.34 0.34 0.34 0.34 0.37 0.38 0.34 0.35 0.48 0.51 0.53 0.56 0.53 0.50 0.51 0.50 0.50 0.51 0.52 0.52 0.57 0.58 0.55 0.56 0.60 0.62 0.66 0.73 0.80 0.85 0.90 0.93 0.97 0.99 1.02 1.05 1.08 1.13 1.15 1.19 1.24 1.27 1.32 1.37 1.42 1.46 1.47 1.48 1.50 1.52 1.52 1.50 1.50 1.51 1.54 1.61 1.68 1.63 1.61 1.58 1.58 1.57 1.53 1.45 1.35 1.30
0.28 0.25 0.24 0.23 0.23 0.20 0.26 0.38 0.52 0.62 0.62 0.64 0.61 0.49 0.41 0.55 0.59 0.61 0.53 0.46 0.46 0.44 0.45 0.40 0.36 0.37 0.31 0.27 0.28 0.39 0.49 0.57 0.57 0.61 0.61 0.61 0.60 0.59 0.57 0.58 0.59 0.61 0.63 0.64 0.64 0.61 0.62 0.68 0.75 0.79 0.83 0.87 0.91 0.93 0.95 1.00 1.03 1.05 1.08 1.11 1.17 1.21 1.26 1.34 1.39 1.45 1.47 1.48 1.47 1.47 1.47 1.43 1.44 1.47 1.52 1.57 1.58 1.62 1.58 1.57 1.58 1.60 1.64 1.63 1.57 1.46 1.36
0.26 0.24 0.22 0.21 0.20 0.24 0.45 0.49 0.52 0.61 0.63 0.65 0.71 0.45 0.32 0.51 0.61 0.67 0.61 0.54 0.54 0.53 0.52 0.52 0.44 0.34 0.26 0.26 0.28 0.41 0.51 0.57 0.62 0.60 0.63 0.65 0.66 0.65 0.63 0.60 0.57 0.61 0.64 0.65 0.66 0.64 0.65 0.69 0.78 0.81 0.80 0.84 0.89 0.90 0.93 0.95 0.99 1.02 1.06 1.09 1.15 1.17 1.24 1.32 1.36 1.40 1.43 1.45 1.46 1.43 1.36 1.37 1.43 1.46 1.49 1.51 1.58 1.65 1.63 1.64 1.62 1.65 1.68 1.65 1.62 1.58 1.46
0.27 0.25 0.22 0.20 0.25 0.26 0.37 0.47 0.55 0.62 0.71 0.63 0.57 0.26 0.29 0.54 0.67 0.68 0.67 0.60 0.58 0.60 0.63 0.64 0.52 0.37 0.28 0.28 0.32 0.51 0.57 0.62 0.67 0.66 0.66 0.69 0.70 0.70 0.72 0.72 0.71 0.70 0.70 0.66 0.63 0.63 0.66 0.77 0.85 0.83 0.82 0.84 0.87 0.92 0.95 0.99 0.98 0.99 1.01 1.06 1.16 1.23 1.28 1.32 1.36 1.41 1.44 1.43 1.43 1.39 1.35 1.39 1.45 1.46 1.51 1.56 1.58 1.60 1.64 1.65 1.63 1.63 1.62 1.64 1.62 1.60 1.60
0.24 0.24 0.24 0.24 0.25 0.36 0.37 0.43 0.54 0.62 0.71 0.60 0.34 0.25 0.49 0.68 0.73 0.76 0.74 0.68 0.68 0.69 0.66 0.67 0.49 0.49 0.51 0.55 0.60 0.65 0.70 0.66 0.69 0.76 0.78 0.81 0.80 0.77 0.77 0.76 0.77 0.72 0.71 0.70 0.69 0.73 0.83 0.91 0.91 0.90 0.88 0.85 0.85 0.91 0.95 0.94 0.93 0.96 1.07 1.18 1.25 1.29 1.35 1.38 1.39 1.40 1.44 1.42 1.37 1.38 1.41 1.41 1.45 1.48 1.51 1.49 1.53 1.57 1.57 1.61 1.63 1.64 1.63 1.59 1.59 1.61 1.63
0.22 0.24 0.22 0.23 0.26 0.37 0.41 0.50 0.53 0.65 0.49 0.34 0.31 0.58 0.72 0.71 0.69 0.77 0.81 0.76 0.76 0.74 0.72 0.71 0.68 0.68 0.69 0.70 0.69 0.69 0.73 0.75 0.77 0.83 0.84 0.86 0.88 0.89 0.91 0.86 0.80 0.76 0.73 0.75 0.79 0.83 0.93 0.97 0.94 0.94 0.93 0.89 0.90 0.95 0.97 0.93 0.98 1.12 1.15 1.17 1.23 1.28 1.31 1.34 1.37 1.39 1.39 1.41 1.42 1.42 1.47 1.49 1.46 1.44 1.50 1.56 1.59 1.58 1.58 1.58 1.58 1.57 1.59 1.59 1.59 1.62 1.64
0.24 0.25 0.23 0.22 0.19 0.33 0.35 0.49 0.48 0.61 0.38 0.47 0.65 0.67 0.74 0.77 0.77 0.74 0.78 0.79 0.78 0.79 0.74 0.79 0.76 0.75 0.74 0.71 0.71 0.72 0.75 0.79 0.83 0.88 0.90 0.89 0.89 0.88 0.87 0.85 0.88 0.84 0.76 0.77 0.81 0.84 0.94 0.99 0.99 0.98 0.95 0.92 0.95 0.99 1.00 1.07 1.13 1.15 1.18 1.19 1.21 1.25 1.27 1.28 1.29 1.30 1.32 1.31 1.32 1.39 1.42 1.45 1.46 1.46 1.53 1.55 1.55 1.56 1.55 1.55 1.55 1.56 1.59 1.63 1.64 1.62 1.61
0.21 0.21 0.19 0.21 0.29 0.53 0.52 0.38 0.37 0.53 0.58 0.68 0.74 0.72 0.69 0.80 0.80 0.77 0.76 0.82 0.84 0.85 0.81 0.81 0.80 0.80 0.78 0.78 0.79 0.80 0.81 0.85 0.91 0.97 1.01 1.00 0.98 0.95 0.94 0.95 0.95 0.96 0.87 0.87 0.89 0.95 1.00 1.04 1.02 1.00 0.97 0.92 0.95 0.98 1.04 1.17 1.21 1.21 1.22 1.24 1.25 1.24 1.24 1.25 1.25 1.27 1.29 1.32 1.34 1.38 1.41 1.45 1.48 1.49 1.49 1.48 1.50 1.52 1.54 1.54 1.53 1.52 1.54 1.59 1.64 1.65 1.65
0.35 0.29 0.33 0.40 0.47 0.54 0.67 0.68 0.59 0.62 0.72 0.77 0.79 0.79 0.77 0.77 0.82 0.86 0.81 0.82 0.88 0.90 0.89 0.88 0.87 0.80 0.82 0.84 0.88 0.85 0.84 0.88 0.92 0.96 1.01 1.02 0.99 0.97 0.95 0.95 0.98 0.97 0.91 0.87 0.94 1.01 1.07 1.08 1.08 1.04 0.99 0.91 0.90 0.92 1.07 1.19 1.21 1.20 1.21 1.22 1.21 1.20 1.21 1.24 1.25 1.28 1.31 1.33 1.37 1.41 1.45 1.46 1.43 1.45 1.47 1.51 1.45 1.47 1.49 1.50 1.52 1.52 1.53 1.55 1.50 1.49 1.54
0.52 0.49 0.47 0.48 0.48 0.56 0.66 0.77 0.83 0.74 0.74 0.79 0.83 0.83 0.81 0.86 0.90 0.90 0.86 0.89 0.91 0.94 0.98 0.89 0.87 0.87 0.92 0.95 0.95 0.92 0.92 0.93 0.98 1.02 1.04 1.05 1.05 1.03 1.01 0.98 0.98 0.96 0.94 0.92 0.91 0.93 1.04 1.11 1.11 1.09 1.05 1.01 0.90 0.96 1.09 1.16 1.20 1.20 1.19 1.18 1.19 1.21 1.25 1.27 1.29 1.33 1.34 1.39 1.44 1.47 1.50 1.52 1.51 1.53 1.54 1.56 1.54 1.53 1.50 1.48 1.51 1.51 1.50 1.52 1.50 1.48 1.47
0.38 0.29 0.48 0.41 0.44 0.57 0.68 0.74 0.79 0.80 0.77 0.77 0.83 0.86 0.88 0.94 0.98 0.97 1.00 0.98 0.99 0.98 1.03 1.02 0.98 0.96 0.99 1.00 1.02 0.99 0.96 0.96 0.96 0.98 0.98 0.99 1.00 0.99 0.97 1.00 1.01 0.97 0.93 0.89 0.85 0.85 0.85 0.98 1.02 1.03 1.03 1.06 1.07 1.10 1.13 1.21 1.27 1.29 1.26 1.22 1.21 1.23 1.25 1.28 1.32 1.34 1.34 1.37 1.43 1.49 1.54 1.57 1.60 1.61 1.63 1.62 1.61 1.62 1.64 1.59 1.54 1.51 1.51 1.51 1.50 1.50 1.49
0.35 0.33 0.42 0.50 0.52 0.58 0.71 0.79 0.78 0.74 0.73 0.75 0.80 0.89 0.95 1.01 1.04 1.05 1.07 1.10 1.07 1.09 1.03 1.06 1.04 1.01 1.01 1.00 1.02 1.01 0.97 0.95 0.97 0.95 0.94 0.95 0.96 0.99 1.01 1.01 1.00 0.97 0.93 0.89 0.87 0.86 0.85 0.91 0.96 0.98 1.00 1.02 1.08 1.14 1.17 1.22 1.26 1.29 1.27 1.24 1.21 1.23 1.28 1.31 1.32 1.34 1.34 1.37 1.39 1.43 1.50 1.53 1.55 1.58 1.63 1.64 1.61 1.58 1.57 1.58 1.57 1.58 1.61 1.59 1.55 1.48 1.47
0.40 0.44 0.43 0.47 0.53 0.54 0.62 0.74 0.85 0.86 0.80 0.79 0.77 0.82 0.94 1.03 1.04 1.06 1.11 1.16 1.15 1.12 1.07 1.07 1.08 1.04 1.02 1.01 1.01 1.02 1.02 0.98 0.97 0.96 0.96 0.98 0.98 1.00 0.99 1.00 1.00 0.94 0.91 0.88 0.88 0.87 0.88 0.95 0.98 0.99 1.01 1.05 1.09 1.10 1.13 1.16 1.19 1.19 1.21 1.25 1.26 1.26 1.30 1.31 1.31 1.34 1.35 1.36 1.36 1.36 1.39 1.43 1.49 1.55 1.55 1.57 1.58 1.61 1.68 1.71 1.68 1.64 1.63 1.66 1.69 1.70 1.69
0.32 0.32 0.36 0.52 0.45 0.46 0.61 0.72 0.81 0.82 0.81 0.83 0.76 0.76 0.87 1.02 1.04 1.08 1.07 1.13 1.17 1.16 1.15 1.11 1.09 1.04 1.04 1.04 1.03 1.01 1.04 1.02 1.01 1.01 1.01 1.02 1.03 1.05 1.08 1.09 1.06 1.01 0.98 0.94 0.91 0.90 0.93 0.98 0.99 0.99 1.01 1.04 1.08 1.10 1.12 1.14 1.15 1.12 1.12 1.16 1.19 1.23 1.28 1.29 1.31 1.31 1.29 1.27 1.28 1.28 1.29 1.30 1.34 1.41 1.55 1.59 1.62 1.59 1.59 1.71 1.73 1.73 1.72 1.68 1.75 1.83 1.82
0.28 0.37 0.48 0.59 0.61 0.61 0.66 0.73 0.79 0.85 0.87 0.82 0.75 0.70 0.80 0.95 1.14 1.18 1.14 1.11 1.11 1.11 1.13 1.16 1.11 1.07 1.05 1.03 1.05 1.03 1.05 1.06 1.08 1.07 1.05 1.03 1.03 1.05 1.09 1.07 1.04 1.02 1.01 1.02 1.00 0.98 1.00 1.03 1.02 1.03 1.03 1.05 1.06 1.08 1.09 1.10 1.10 1.09 1.10 1.08 1.10 1.13 1.17 1.20 1.24 1.27 1.27 1.27 1.29 1.30 1.31 1.31 1.32 1.32 1.36 1.50 1.59 1.61 1.61 1.61 1.65 1.67 1.70 1.71 1.75 1.80 1.84
0.40 0.44 0.49 0.55 0.58 0.57 0.67 0.77 0.82 0.88 0.90 0.86 0.75 0.76 0.81 0.89 1.06 1.20 1.20 1.16 1.11 1.07 1.10 1.13 1.17 1.13 1.09 1.08 1.07 1.04 1.09 1.12 1.10 1.07 1.05 1.05 1.05 1.06 1.08 1.07 1.05 1.03 1.01 1.01 1.00 1.01 1.06 1.07 1.07 1.08 1.08 1.09 1.10 1.11 1.13 1.13 1.12 1.07 1.06 1.04 1.02 1.05 1.09 1.13 1.15 1.18 1.20 1.22 1.25 1.26 1.29 1.32 1.32 1.30 1.29 1.28 1.37 1.52 1.56 1.57 1.60 1.62 1.64 1.67 1.68 1.71 1.74
0.41 0.50 0.55 0.59 0.63 0.67 0.76 0.83 0.87 0.91 0.89 0.85 0.76 0.74 0.83 0.89 0.99 1.17 1.21 1.19 1.17 1.16 1.11 1.10 1.15 1.17 1.14 1.12 1.10 1.07 1.08 1.11 1.13 1.09 1.05 1.04 1.04 1.04 1.05 1.06 1.04 1.02 1.02 1.04 1.06 1.08 1.10 1.11 1.10 1.10 1.10 1.13 1.16 1.17 1.19 1.20 1.17 1.11 1.09 1.07 1.03 1.03 1.04 1.05 1.06 1.08 1.09 1.09 1.10 1.11 1.09 1.09 1.11 1.15 1.15 1.12 1.05 1.02 1.09 1.18 1.23 1.29 1.41 1.51 1.57 1.59 1.62
0.57 0.56 0.59 0.63 0.66 0.71 0.79 0.84 0.85 0.89 0.88 0.84 0.79 0.79 0.87 0.94 0.99 1.16 1.17 1.22 1.21 1.18 1.12 1.10 1.11 1.15 1.16 1.10 1.08 1.08 1.10 1.10 1.13 1.12 1.06 1.03 1.04 1.05 1.04 1.06 1.08 1.10 1.09 1.08 1.08 1.09 1.10 1.11 1.12 1.12 1.12 1.16 1.20 1.22 1.22 1.21 1.18 1.14 1.11 1.10 1.09 1.08 1.06 1.06 1.06 1.05 1.06 1.07 1.06 1.05 1.04 1.02 1.00 0.97 0.95 0.92 0.90 0.88 0.85 0.86 0.91 0.95 0.99 1.02 1.09 1.23 1.43
0.62 0.62 0.63 0.61 0.62 0.70 0.81 0.79 0.78 0.88 0.89 0.86 0.84 0.81 0.88 1.00 1.03 1.12 1.17 1.18 1.15 1.14 1.08 1.07 1.10 1.15 1.16 1.14 1.12 1.12 1.12 1.17 1.19 1.14 1.11 1.10 1.10 1.11 1.14 1.17 1.17 1.16 1.15 1.14 1.14 1.16 1.17 1.18 1.18 1.17 1.16 1.21 1.25 1.25 1.24 1.23 1.21 1.19 1.18 1.16 1.14 1.13 1.13 1.13 1.11 1.10 1.10 1.11 1.07 1.03 1.01 1.00 0.99 0.98 0.96 0.97 0.94 0.91 0.89 0.85 0.83 0.82 0.84 0.92 1.00 1.03 1.07
0.63 0.65 0.69 0.58 0.58 0.71 0.78 0.90 0.96 0.96 0.91 0.88 0.86 0.85 0.90 0.95 0.96 1.06 1.04 1.03 1.01 1.05 1.07 1.09 1.10 1.12 1.13 1.14 1.14 1.12 1.17 1.18 1.17 1.19 1.19 1.19 1.23 1.26 1.26 1.26 1.27 1.25 1.24 1.23 1.23 1.25 1.26 1.25 1.24 1.22 1.22 1.27 1.30 1.30 1.29 1.27 1.25 1.23 1.20 1.18 1.16 1.14 1.14 1.13 1.11 1.09 1.07 1.08 1.09 1.08 1.07 1.05 1.03 0.99 0.98 0.95 0.92 0.91 0.91 0.88 0.86 0.84 0.88 0.94 0.98 1.03 1.04
0.67 0.67 0.73 0.74 0.75 0.86 0.92 0.99 0.97 0.95 0.94 0.92 0.92 0.94 0.92 0.87 0.88 0.95 0.99 1.01 1.00 0.99 1.01 1.05 1.07 1.07 1.12 1.15 1.14 1.11 1.11 1.13 1.14 1.14 1.17 1.24 1.28 1.30 1.31 1.31 1.31 1.31 1.29 1.26 1.26 1.27 1.26 1.26 1.25 1.24 1.26 1.34 1.36 1.36 1.34 1.32 1.28 1.25 1.21 1.19 1.16 1.14 1.13 1.12 1.12 1.12 1.13 1.14 1.13 1.13 1.10 1.09 1.06 1.02 1.01 0.99 0.98 0.97 0.93 0.91 0.89 0.90 0.91 0.92 0.96 1.00 1.07
0.74 0.72 0.70 0.76 0.82 0.90 0.89 0.87 0.93 0.93 0.91 0.93 0.91 0.88 0.91 0.88 0.86 0.90 0.97 0.98 0.98 0.98 1.02 1.04 1.03 1.02 1.07 1.09 1.11 1.11 1.09 1.09 1.13 1.16 1.21 1.23 1.25 1.28 1.29 1.31 1.32 1.31 1.30 1.26 1.26 1.28 1.27 1.26 1.26 1.26 1.29 1.36 1.38 1.37 1.35 1.33 1.29 1.28 1.26 1.24 1.23 1.22 1.22 1.22 1.21 1.21 1.19 1.17 1.16 1.15 1.13 1.12 1.10 1.07 1.05 1.03 1.02 1.00 0.97 0.92 0.92 0.92 0.91 0.90 0.91 0.94 0.98
0.80 0.83 0.90 0.93 0.88 0.88 0.86 0.86 0.88 0.93 0.91 0.93 0.93 0.92 0.90 0.89 0.88 0.92 0.92 0.95 0.96 0.98 1.03 1.02 1.03 1.02 1.02 1.02 1.07 1.11 1.16 1.17 1.17 1.16 1.18 1.21 1.23 1.24 1.25 1.24 1.12 1.07 1.12 1.19 1.26 1.29 1.29 1.29 1.29 1.29 1.36 1.39 1.38 1.38 1.35 1.32 1.29 1.28 1.28 1.28 1.27 1.27 1.29 1.30 1.31 1.29 1.26 1.24 1.21 1.19 1.16 1.13 1.10 1.08 1.05 1.05 1.04 1.02 1.01 0.99 0.95 0.93 0.92 0.92 0.94 0.97 1.03
0.84 0.82 0.87 0.91 0.90 0.85 0.84 0.87 0.88 0.89 0.89 0.90 0.87 0.87 0.90 0.88 0.88 0.91 0.91 0.90 0.95 0.97 0.98 1.00 1.01 1.01 1.03 1.08 1.09 1.10 1.12 1.12 1.11 1.12 1.14 1.16 1.17 1.20 1.20 1.17 1.15 1.15 1.17 1.20 1.22 1.25 1.26 1.26 1.25 1.32 1.39 1.40 1.41 1.40 1.38 1.34 1.32 1.27 1.23 1.22 1.22 1.22 1.24 1.25 1.27 1.27 1.27 1.23 1.21 1.18 1.16 1.13 1.10 1.10 1.08 1.06 1.04 1.02 1.04 1.03 0.99 0.98 0.98 1.01 1.06 1.11 1.19
0.75 0.73 0.75 0.78 0.79 0.83 0.83 0.86 0.85 0.87 0.89 0.87 0.86 0.90 0.93 0.94 0.94 0.97 1.00 0.98 0.97 0.98 0.98 1.01 1.04 1.08 1.10 1.12 1.12 1.11 1.10 1.09 1.08 1.08 1.08 1.08 1.10 1.12 1.13 1.13 1.13 1.13 1.13 1.18 1.20 1.22 1.20 1.20 1.24 1.36 1.40 1.44 1.46 1.47 1.45 1.41 1.37 1.32 1.29 1.28 1.26 1.25 1.25 1.25 1.26 1.27 1.26 1.24 1.21 1.19 1.17 1.16 1.13 1.11 1.08 1.07 1.06 1.05 1.06 1.04 1.03 1.01 1.01 1.07 1.16 1.23 1.41
0.77 0.77 0.79 0.82 0.81 0.80 0.80 0.85 0.89 0.89 0.91 0.94 0.92 0.91 0.94 0.98 0.98 0.98 1.02 1.02 1.02 1.02 1.03 1.07 1.12 1.15 1.17 1.16 1.16 1.16 1.16 1.12 1.06 1.06 1.06 1.06 1.07 1.09 1.11 1.12 1.12 1.12 1.13 1.16 1.18 1.18 1.19 1.19 1.23 1.28 1.33 1.38 1.42 1.45 1.47 1.48 1.46 1.43 1.41 1.37 1.32 1.28 1.26 1.26 1.27 1.25 1.23 1.20 1.20 1.20 1.18 1.15 1.11 1.10 1.08 1.08 1.07 1.05 1.04 1.03 1.04 1.05 1.04 1.07 1.19 1.35 1.49
0.91 0.93 0.95 0.95 0.96 0.94 0.93 0.93 0.91 0.91 0.91 0.91 0.95 0.96 0.96 0.97 0.99 1.01 1.05 1.06 1.06 1.10 1.15 1.16 1.19 1.21 1.19 1.18 1.17 1.16 1.14 1.10 1.11 1.12 1.12 1.12 1.11 1.11 1.11 1.09 1.09 1.10 1.10 1.13 1.14 1.15 1.17 1.19 1.18 1.19 1.23 1.26 1.30 1.33 1.38 1.42 1.44 1.45 1.45 1.43 1.40 1.36 1.32 1.29 1.27 1.24 1.22 1.21 1.21 1.19 1.16 1.14 1.11 1.11 1.11 1.11 1.08 1.07 1.04 1.05 1.05 1.04 1.06 1.06 1.12 1.31 1.47
0.94 0.93 0.93 0.92 0.93 0.95 0.96 0.97 0.96 0.97 0.98 0.99 1.00 1.00 0.99 0.99 1.01 1.05 1.07 1.10 1.15 1.17 1.17 1.19 1.20 1.20 1.17 1.14 1.12 1.11 1.10 1.11 1.11 1.12 1.12 1.13 1.15 1.16 1.13 1.07 1.04 1.02 1.03 1.05 1.12 1.17 1.18 1.17 1.17 1.17 1.18 1.22 1.22 1.26 1.29 1.31 1.33 1.36 1.39 1.41 1.40 1.39 1.37 1.34 1.31 1.29 1.29 1.27 1.25 1.23 1.22 1.19 1.18 1.16 1.15 1.14 1.13 1.10 1.09 1.07 1.05 1.07 1.05 1.07 1.12 1.17 1.24
1.00 0.95 0.92 0.93 0.96 0.97 0.99 1.03 1.03 1.02 1.01 1.01 1.00 1.03 1.03 1.05 1.07 1.12 1.14 1.14 1.16 1.17 1.19 1.19 1.18 1.14 1.13 1.14 1.12 1.12 1.12 1.11 1.10 1.09 1.11 1.14 1.15 1.12 1.09 1.08 1.07 1.05 1.03 0.99 1.08 1.17 1.15 1.15 1.15 1.14 1.14 1.16 1.20 1.22 1.25 1.26 1.27 1.28 1.30 1.32 1.35 1.37 1.37 1.35 1.32 1.29 1.26 1.28 1.27 1.27 1.25 1.25 1.23 1.21 1.22 1.20 1.16 1.15 1.13 1.12 1.12 1.10 1.09 1.10 1.13 1.15 1.17
1.00 1.01 1.02 1.02 1.03 1.03 1.03 1.05 1.08 1.06 1.04 1.03 1.08 1.11 1.12 1.11 1.15 1.15 1.20 1.21 1.22 1.22 1.21 1.18 1.16 1.16 1.15 1.13 1.11 1.09 1.09 1.11 1.11 1.11 1.12 1.10 1.09 1.04 1.03 1.02 1.03 1.06 1.03 1.05 1.15 1.16 1.13 1.13 1.12 1.13 1.14 1.15 1.16 1.18 1.21 1.23 1.25 1.27 1.26 1.25 1.25 1.26 1.26 1.28 1.29 1.31 1.29 1.28 1.29 1.30 1.28 1.26 1.24 1.24 1.25 1.25 1.23 1.19 1.18 1.19 1.19 1.20 1.20 1.20 1.20 1.20 1.19
1.02 1.05 1.06 1.06 1.08 1.08 1.07 1.09 1.12 1.09 1.09 1.06 1.09 1.14 1.18 1.17 1.17 1.21 1.21 1.21 1.24 1.23 1.19 1.13 1.14 1.13 1.13 1.10 1.09 1.10 1.11 1.11 1.12 1.10 1.09 1.07 1.07 1.02 0.99 1.01 1.03 1.05 1.07 1.11 1.12 1.10 1.10 1.08 1.07 1.07 1.08 1.10 1.14 1.18 1.21 1.23 1.25 1.26 1.26 1.26 1.24 1.22 1.20 1.20 1.19 1.20 1.25 1.30 1.31 1.29 1.29 1.28 1.28 1.27 1.29 1.28 1.28 1.28 1.25 1.23 1.25 1.26 1.26 1.27 1.28 1.29 1.30
0.97 1.00 1.02 1.03 1.01 1.02 1.03 1.06 1.09 1.10 1.13 1.16 1.15 1.13 1.17 1.18 1.17 1.16 1.16 1.16 1.18 1.18 1.14 1.12 1.10 1.07 1.08 1.09 1.08 1.08 1.10 1.11 1.10 1.08 1.06 1.04 1.03 1.01 1.00 1.01 1.05 1.07 1.08 1.07 1.05 1.03 1.02 1.01 1.01 1.01 1.02 1.04 1.06 1.09 1.13 1.17 1.21 1.23 1.25 1.26 1.25 1.25 1.24 1.24 1.22 1.20 1.20 1.21 1.22 1.24 1.26 1.29 1.32 1.32 1.34 1.37 1.37 1.38 1.37 1.34 1.32 1.31 1.29 1.27 1.29 1.30 1.29
0.91 0.93 0.94 0.96 0.99 1.03 1.04 1.05 1.06 1.09 1.11 1.13 1.14 1.15 1.17 1.16 1.16 1.13 1.11 1.10 1.12 1.12 1.12 1.11 1.08 1.06 1.06 1.05 1.03 1.04 1.05 1.06 1.06 1.05 1.06 1.03 0.98 0.96 0.94 0.92 1.03 1.07 1.07 1.06 1.05 1.04 1.03 1.02 1.02 1.01 1.02 1.04 1.06 1.07 1.06 1.07 1.09 1.11 1.13 1.14 1.16 1.19 1.21 1.21 1.22 1.22 1.22 1.22 1.22 1.20 1.20 1.23 1.28 1.35 1.36 1.35 1.36 1.38 1.36 1.37 1.36 1.37 1.37 1.38 1.35 1.32 1.30
0.89 0.90 0.91 0.91 0.92 0.93 0.95 0.94 0.95 0.97 1.00 1.04 1.08 1.08 1.08 1.08 1.07 1.06 1.06 1.06 1.06 1.07 1.07 1.07 1.06 1.04 1.04 1.04 1.03 1.02 1.01 1.02 1.02 1.03 1.03 1.00 0.96 0.94 0.91 0.94 1.04 1.05 1.06 1.04 1.03 1.03 1.02 1.02 1.02 1.01 1.01 1.03 1.05 1.05 1.04 1.03 1.03 1.03 1.04 1.05 1.06 1.07 1.08 1.10 1.12 1.14 1.16 1.18 1.18 1.20 1.22 1.23 1.25 1.30 1.35 1.38 1.39 1.39 1.39 1.36 1.36 1.36 1.37 1.39 1.43 1.43 1.41
0.88 0.88 0.87 0.89 0.91 0.91 0.91 0.93 0.94 0.95 0.95 0.97 0.99 1.00 1.03 1.05 1.05 1.04 1.04 1.03 1.02 1.03 1.03 1.02 1.02 1.01 1.00 0.99 0.97 0.96 0.96 0.97 0.96 0.95 0.96 0.99 1.01 1.00 0.97 0.97 1.02 1.04 1.03 1.02 1.02 1.02 1.03 1.04 1.04 1.03 1.03 1.03 1.03 1.03 1.01 1.00 1.00 0.99 0.99 0.99 1.00 1.01 1.02 1.03 1.03 1.05 1.06 1.07 1.08 1.13 1.16 1.18 1.20 1.23 1.25 1.30 1.34 1.37 1.38 1.39 1.36 1.35 1.37 1.36 1.36 1.38 1.41
0.87 0.87 0.86 0.85 0.85 0.88 0.89 0.89 0.88 0.89 0.88 0.91 0.95 0.97 0.97 0.97 0.97 0.96 0.96 0.97 0.96 0.97 0.96 0.95 0.94 0.94 0.93 0.93 0.92 0.90 0.91 0.92 0.92 0.92 0.90 0.90 0.92 0.97 1.00 0.96 0.95 0.96 0.95 0.95 0.95 0.96 0.97 1.00 1.01 1.00 0.99 0.99 0.99 0.99 0.99 0.98 0.96 0.95 0.94 0.94 0.94 0.94 0.94 0.95 0.96 0.97 0.98 0.99 1.02 1.04 1.07 1.11 1.14 1.16 1.20 1.21 1.24 1.29 1.34 1.38 1.41 1.39 1.38 1.38 1.36 1.37 1.39
0.85 0.86 0.86 0.86 0.87 0.87 0.86 0.85 0.83 0.83 0.87 0.88 0.89 0.89 0.90 0.90 0.92 0.93 0.92 0.91 0.91 0.91 0.91 0.91 0.91 0.91 0.90 0.90 0.89 0.89 0.88 0.88 0.88 0.87 0.81 0.79 0.78 0.82 0.92 0.92 0.90 0.89 0.90 0.89 0.87 0.87 0.88 0.90 0.92 0.93 0.94 0.94 0.94 0.93 0.92 0.92 0.91 0.91 0.90 0.90 0.90 0.89 0.89 0.89 0.91 0.92 0.93 0.95 0.96 0.98 1.00 1.03 1.08 1.12 1.13 1.15 1.20 1.23 1.26 1.28 1.31 1.38 1.40 1.36 1.35 1.34 1.34
0.83 0.84 0.85 0.85 0.84 0.85 0.87 0.87 0.88 0.88 0.85 0.83 0.82 0.84 0.87 0.87 0.88 0.88 0.89 0.89 0.88 0.89 0.89 0.89 0.88 0.88 0.87 0.86 0.85 0.85 0.84 0.83 0.84 0.85 0.84 0.82 0.77 0.79 0.84 0.82 0.80 0.79 0.78 0.78 0.78 0.78 0.79 0.80 0.80 0.80 0.83 0.86 0.87 0.87 0.87 0.88 0.88 0.87 0.86 0.86 0.85 0.85 0.85 0.85 0.86 0.86 0.87 0.87 0.88 0.90 0.92 0.96 1.01 1.06 1.10 1.11 1.12 1.16 1.20 1.26 1.30 1.33 1.34 1.37 1.35 1.33 1.35
0.77 0.80 0.82 0.83 0.84 0.85 0.85 0.85 0.84 0.82 0.80 0.77 0.76 0.77 0.82 0.84 0.85 0.85 0.86 0.86 0.86 0.86 0.86 0.86 0.85 0.85 0.85 0.84 0.81 0.77 0.73 0.71 0.72 0.74 0.75 0.76 0.76 0.75 0.73 0.71 0.70 0.68 0.66 0.66 0.66 0.66 0.66 0.66 0.66 0.67 0.68 0.69 0.72 0.75 0.78 0.79 0.79 0.80 0.80 0.80 0.81 0.82 0.82 0.82 0.82 0.82 0.83 0.82 0.82 0.83 0.85 0.88 0.91 0.96 1.03 1.05 1.08 1.11 1.16 1.19 1.23 1.27 1.33 1.37 1.40 1.40 1.37
0.67 0.69 0.72 0.76 0.78 0.81 0.82 0.81 0.78 0.75 0.75 0.74 0.76 0.78 0.80 0.82 0.82 0.83 0.84 0.84 0.83 0.83 0.82 0.82 0.82 0.81 0.80 0.79 0.78 0.77 0.75 0.69 0.63 0.65 0.70 0.70 0.70 0.70 0.69 0.67 0.67 0.65 0.63 0.62 0.61 0.61 0.60 0.59 0.59 0.59 0.59 0.60 0.62 0.64 0.65 0.68 0.71 0.73 0.74 0.74 0.74 0.75 0.77 0.78 0.78 0.80 0.80 0.80 0.79 0.79 0.78 0.79 0.82 0.86 0.90 0.93 0.97 1.01 1.08 1.12 1.16 1.22 1.28 1.30 1.31 1.32 1.32
0.60 0.61 0.63 0.66 0.68 0.70 0.72 0.72 0.72 0.72 0.73 0.76 0.76 0.76 0.78 0.78 0.78 0.78 0.77 0.78 0.77 0.77 0.76 0.76 0.76 0.76 0.76 0.77 0.75 0.73 0.73 0.73 0.68 0.64 0.68 0.69 0.68 0.67 0.66 0.66 0.65 0.63 0.62 0.61 0.61 0.60 0.59 0.57 0.57 0.57 0.57 0.57 0.57 0.59 0.60 0.62 0.63 0.65 0.67 0.70 0.71 0.71 0.72 0.73 0.75 0.77 0.78 0.77 0.77 0.77 0.76 0.76 0.76 0.77 0.78 0.82 0.86 0.90 0.94 0.98 1.02 1.11 1.16 1.21 1.26 1.26 1.27
0.56 0.56 0.56 0.57 0.57 0.58 0.60 0.62 0.64 0.68 0.71 0.73 0.72 0.74 0.75 0.75 0.72 0.72 0.74 0.74 0.72 0.72 0.71 0.70 0.70 0.71 0.70 0.70 0.70 0.70 0.69 0.68 0.67 0.67 0.67 0.65 0.64 0.63 0.63 0.62 0.62 0.60 0.59 0.58 0.58 0.58 0.60 0.59 0.57 0.56 0.56 0.54 0.54 0.54 0.56 0.57 0.58 0.60 0.61 0.63 0.66 0.68 0.70 0.71 0.71 0.71 0.72 0.73 0.75 0.76 0.75 0.74 0.74 0.73 0.73 0.73 0.75 0.78 0.83 0.88 0.92 0.98 1.05 1.10 1.15 1.18 1.21
0.54 0.54 0.55 0.57 0.58 0.58 0.58 0.59 0.62 0.64 0.66 0.67 0.68 0.70 0.70 0.68 0.67 0.68 0.69 0.69 0.68 0.66 0.64 0.64 0.65 0.65 0.65 0.65 0.66 0.66 0.66 0.65 0.65 0.63 0.61 0.60 0.60 0.59 0.57 0.57 0.56 0.56 0.55 0.54 0.54 0.54 0.55 0.56 0.55 0.54 0.54 0.54 0.52 0.51 0.51 0.51 0.52 0.53 0.54 0.57 0.60 0.62 0.64 0.67 0.69 0.70 0.71 0.72 0.73 0.73 0.74 0.74 0.74 0.74 0.72 0.72 0.71 0.71 0.72 0.75 0.80 0.84 0.88 0.95 1.02 1.09 1.11
0.49 0.51 0.53 0.54 0.54 0.54 0.54 0.55 0.55 0.56 0.58 0.60 0.61 0.62 0.62 0.62 0.61 0.61 0.62 0.62 0.61 0.59 0.59 0.57 0.55 0.59 0.61 0.60 0.60 0.60 0.61 0.60 0.59 0.58 0.58 0.57 0.56 0.55 0.55 0.54 0.53 0.52 0.51 0.51 0.51 0.51 0.51 0.52 0.52 0.51 0.51 0.50 0.50 0.50 0.49 0.48 0.47 0.47 0.48 0.49 0.51 0.52 0.55 0.58 0.61 0.63 0.66 0.68 0.70 0.71 0.72 0.74 0.75 0.74 0.75 0.75 0.73 0.71 0.70 0.71 0.71 0.73 0.77 0.81 0.86 0.90 0.94
Wind_Speed
28 29 30 29 29 30 30 31 31 31 29 30 31 32 30 28 28 28 24 23 26 25 22 21 19 16 16 15 14 13 12 11 12 12 13 14 15 16 17 18 20 21 23 23 23 22 22 24 26 27 28 29 30 31 31 31 32 32 31 31 31 30 30 30 30 29 29 28 27 26 26 25 24 24 24 23 23 22 22 24 25 26 26 27 28 29 30
29 29 30 29 29 30 31 32 32 33 32 31 31 31 32 32 32 30 27 26 27 25 23 23 22 20 20 19 18 17 15 14 13 13 14 15 14 15 16 17 18 20 22 22 22 22 22 23 25 27 28 29 30 31 31 31 31 32 32 31 31 31 31 30 30 30 29 29 28 27 27 27 26 26 25 24 23 23 23 23 24 25 26 27 27 28 29
30 29 29 29 30 31 32 33 33 33 33 33 33 32 31 31 31 31 30 29 28 25 22 21 21 19 20 20 20 20 19 18 17 16 16 16 16 16 16 16 17 18 20 21 21 21 22 22 24 26 27 28 29 30 30 30 31 31 31 31 31 31 31 30 30 30 30 30 29 29 29 28 28 28 27 26 25 24 24 24 24 25 26 27 27 28 29
30 29 29 29 30 31 33 35 35 35 35 34 33 32 31 31 30 30 31 31 28 24 21 21 21 19 20 21 21 21 22 22 20 20 19 18 18 18 18 18 17 17 19 20 20 21 22 22 23 24 25 27 29 29 29 29 29 30 31 31 31 32 31 30 31 31 30 30 30 30 30 29 29 29 28 27 26 25 25 24 24 25 26 27 28 28 28
30 30 29 29 29 31 33 34 34 35 36 35 34 34 33 31 30 29 29 28 26 23 23 24 24 23 22 22 22 23 24 23 23 22 22 21 21 20 19 19 19 19 19 19 20 20 21 22 23 23 24 26 27 28 28 28 28 29 30 30 31 31 31 30 31 31 31 31 31 30 30 30 29 29 29 29 28 27 27 26 25 25 26 27 28 28 28
30 30 29 29 31 32 31 30 30 32 33 34 35 35 34 33 32 30 29 27 25 24 24 24 25 25 25 24 24 24 24 23 23 24 23 23 22 21 20 20 21 21 20 19 19 19 20 21 23 23 24 25 26 26 27 27 28 29 29 30 30 30 30 31 31 31 31 31 31 30 30 30 30 30 30 30 30 29 28 28 27 27 28 28 28 28 29
31 30 29 30 32 32 30 28 29 30 31 31 32 33 33 32 33 33 33 31 28 25 24 25 25 25 25 24 23 22 22 22 22 23 23 23 22 21 21 22 22 22 21 20 20 20 20 21 22 23 24 24 25 26 27 27 28 28 29 29 29 29 30 30 31 31 31 31 30 30 30 30 30 31 31 31 31 31 30 29 29 29 29 29 29 29 29
32 31 32 33 31 29 30 30 28 28 30 30 30 31 29 28 28 30 32 31 30 28 27 26 26 24 23 23 23 23 23 22 22 23 23 23 22 22 22 22 23 23 22 21 21 20 20 20 22 23 24 25 26 27 27 27 28 28 29 29 29 29 29 30 30 30 30 30 30 30 30 31 31 32 32 32 32 31 31 31 31 30 30 30 31 31 30
34 33 35 35 32 31 33 31 28 28 30 29 29 30 29 27 26 27 28 28 28 28 27 26 25 24 23 24 24 24 24 23 23 23 23 23 23 23 23 23 24 24 23 22 21 20 20 21 22 23 24 25 26 26 27 27 28 29 29 29 29 29 29 30 30 30 30 30 30 30 31 32 32 32 32 32 31 31 32 32 32 32 32 32 32 32 32
36 35 35 35 34 34 33 31 29 30 30 30 30 30 30 28 27 27 27 27 26 26 25 25 24 24 26 26 24 24 24 24 23 23 23 23 23 23 23 23 24 24 24 23 22 21 21 22 22 22 23 25 25 26 27 27 27 28 29 29 29 29 29 29 30 31 31 31 31 31 31 32 32 33 33 32 32 32 32 32 33 34 34 34 34 34 34
37 38 37 37 36 34 31 30 30 30 30 30 30 30 30 29 28 28 28 27 27 26 25 25 25 26 28 27 24 23 24 23 22 23 22 22 22 22 22 22 23 24 23 23 22 21 21 22 23 23 23 24 25 25 26 27 27 27 28 28 28 28 29 30 31 31 32 32 32 31 30 31 31 31 32 32 32 32 32 32 32 33 35 36 36 35 35
39 39 39 38 37 35 32 31 30 29 29 29 30 30 28 27 27 28 28 27 27 27 26 26 26 28 28 26 22 22 23 23 22 22 22 21 21 21 20 21 21 22 22 21 20 20 20 21 22 23 24 24 25 25 25 26 27 27 27 27 28 28 29 30 31 31 31 32 32 32 31 30 30 30 30 31 31 32 33 32 32 32 33 35 37 36 36
41 40 40 39 38 37 35 33 31 30 29 30 31 30 28 26 27 27 27 27 27 27 27 27 27 26 26 24 23 23 23 23 22 22 21 21 20 20 19 19 19 20 20 20 19 19 18 19 21 22 23 24 25 26 26 26 26 26 26 27 28 28 29 30 30 30 31 31 32 32 31 31 30 30 30 30 31 32 33 33 33 33 33 34 35 36 37
40 40 40 39 38 37 36 35 32 31 31 31 31 30 29 29 29 27 27 27 26 26 28 29 28 26 25 24 24 23 23 22 21 21 21 20 20 19 19 18 18 19 19 19 19 19 18 19 20 21 22 23 24 25 26 26 26 25 25 27 28 29 29 29 29 29 30 30 31 31 31 31 31 30 30 31 32 32 33 34 34 34 34 34 34 36 38
40 40 40 39 37 36 36 36 35 34 33 32 31 31 30 30 29 29 29 28 26 26 27 28 28 26 25 24 24 23 23 22 22 22 21 21 20 19 18 17 17 18 18 19 19 19 19 19 20 20 21 22 22 24 24 25 25 25 25 26 27 28 29 29 29 29 30 30 31 30 30 31 31 31 31 32 33 33 33 34 35 35 35 35 35 35 37
39 40 40 39 36 33 33 36 36 36 34 33 32 32 30 29 29 29 29 29 27 26 26 27 27 26 24 24 23 23 22 22 22 22 22 22 21 20 19 18 17 17 18 18 19 19 19 20 20 20 20 21 22 23 23 24 24 25 26 27 27 28 29 29 29 29 30 30 31 31 31 32 32 32 32 33 33 34 34 35 36 36 36 36 36 36 36
39 40 40 39 36 34 34 36 36 36 35 34 34 33 31 30 29 29 29 29 28 27 26 26 26 25 24 24 24 23 23 22 23 23 23 22 22 21 20 19 18 18 17 17 18 19 19 19 19 19 19 20 21 22 23 23 24 25 26 27 27 28 28 29 29 29 30 31 31 32 32 33 33 33 33 34 34 35 35 35 36 36 36 37 38 38 38
38 40 42 41 39 37 36 36 36 36 36 35 33 32 30 29 29 29 29 29 28 27 27 26 25 25 25 24 24 23 23 23 23 23 23 23 22 22 21 20 20 19 18 18 18 18 19 19 19 19 19 20 21 22 23 23 23 24 25 26 27 27 28 28 29 29 30 31 32 33 33 34 34 35 35 35 36 36 37 37 38 38 38 38 39 39 39
37 38 40 40 39 38 37 36 36 37 37 35 33 30 28 27 28 28 28 28 27 27 27 27 26 26 25 24 24 23 23 23 23 23 23 22 22 22 22 21 21 20 19 19 19 19 19 20 20 21 21 21 21 23 23 23 23 24 24 25 26 26 27 27 28 29 30 30 31 32 33 34 35 36 36 37 38 38 39 40 40 41 41 40 40 40 41
37 38 38 38 38 39 38 37 36 36 37 36 32 28 27 27 27 27 26 26 25 26 26 26 26 26 25 24 24 24 23 23 23 23 22 22 22 21 21 21 21 20 20 20 20 20 20 20 20 21 21 21 22 22 23 23 23 24 24 24 25 25 26 27 27 28 29 30 31 32 33 35 36 37 38 39 40 40 41 42 43 44 44 43 43 44 43
37 39 38 37 38 39 39 39 38 36 36 36 32 28 26 27 27 26 24 23 24 24 24 25 25 25 25 25 24 24 24 23 23 22 22 22 22 22 21 21 20 20 20 19 19 19 20 20 20 20 20 20 21 22 22 23 23 23 24 24 25 25 26 26 27 28 29 29 30 31 33 34 35 37 38 39 40 41 41 43 44 45 46 46 46 47 46
36 37 36 35 35 36 36 38 39 38 37 35 32 28 26 25 25 25 24 23 23 23 23 24 25 25 25 25 24 24 24 23 23 22 22 22 22 22 22 22 21 20 20 19 19 19 19 19 19 19 19 20 20 21 22 22 22 23 23 24 25 25 26 26 27 27 28 29 30 31 32 33 35 36 37 38 39 40 42 43 44 46 47 48 48 48 49
36 37 36 35 35 35 35 36 38 38 37 35 32 29 27 25 23 23 23 23 22 22 22 23 23 24 25 25 24 24 24 24 23 22 22 21 21 21 21 21 21 20 20 19 19 18 18 19 19 19 19 19 20 20 21 21 22 22 23 23 24 24 25 26 26 27 28 29 30 31 32 34 35 36 37 39 40 42 43 44 46 47 49 50 51 51 52
36 37 38 37 37 38 37 36 37 37 37 36 33 29 28 26 24 23 22 22 22 22 22 22 22 23 24 24 24 24 24 24 23 22 21 20 20 20 20 20 20 20 20 20 19 19 19 19 20 19 20 20 21 21 21 22 22 23 23 23 23 24 25 26 26 27 28 29 30 31 32 33 34 35 37 38 39 41 43 45 47 49 51 53 54 55 56
35 37 38 39 39 39 38 37 37 38 37 36 34 31 29 27 25 23 22 21 21 21 21 21 21 21 22 23 23 23 23 23 23 22 21 20 20 19 19 19 20 20 20 20 19 19 19 20 20 20 20 21 21 22 22 23 23 23 23 24 24 25 26 26 27 28 29 29 30 31 32 32 33 34 35 36 37 39 41 43 45 48 50 53 55 57 58
34 37 39 40 40 40 38 38 38 38 38 36 34 33 30 27 25 24 22 20 19 20 20 20 19 19 20 21 22 22 22 22 22 21 21 20 20 20 20 20 20 20 20 19 19 19 19 19 20 20 21 21 22 23 23 23 23 23 23 24 24 25 26 27 27 28 29 29 29 29 30 30 31 31 33 34 36 37 39 41 43 45 48 51 54 56 59
32 36 38 38 38 38 37 37 37 37 37 35 34 34 32 28 26 25 23 21 19 18 18 18 17 18 19 19 19 20 21 21 21 20 19 18 18 18 19 19 20 20 19 19 18 18 18 19 19 20 20 21 22 22 22 22 22 23 23 23 24 24 25 26 26 26 27 27 27 27 28 29 29 30 32 33 34 36 37 38 40 42 45 47 50 53 57
29 33 36 37 36 35 34 34 33 34 35 35 34 34 33 31 27 25 24 22 20 18 18 17 16 16 17 18 18 18 18 18 18 17 17 16 16 16 17 17 18 18 18 17 17 17 18 18 19 19 20 20 21 21 22 22 22 22 22 22 23 23 23 24 24 24 25 25 26 26 27 28 29 30 31 31 32 33 34 36 37 40 42 45 48 51 55
23 28 32 34 34 32 30 29 30 31 32 33 34 34 34 32 29 26 25 24 22 20 19 18 18 17 17 17 17 17 17 17 17 16 16 16 16 16 16 16 15 15 16 16 16 17 17 18 18 19 20 20 21 21 21 22 22 22 22 22 22 22 23 23 23 23 23 24 24 25 26 26 27 28 28 30 31 31 33 34 36 38 41 44 47 49 51
15 21 25 28 31 31 29 27 27 28 30 31 33 33 32 31 29 27 26 25 23 21 20 19 19 19 18 18 17 17 17 17 17 16 16 16 15 15 15 15 15 14 14 14 14 15 16 17 17 18 20 20 21 21 21 21 21 21 21 21 21 21 22 22 22 22 22 22 23 23 24 25 26 26 27 29 29 30 31 32 34 36 39 42 44 47 49
13 16 18 22 28 30 29 25 23 25 27 29 30 31 31 30 28 27 26 26 24 22 20 19 19 19 20 20 19 18 18 18 17 16 15 15 14 14 13 13 13 12 12 12 13 13 14 15 16 17 18 19 20 20 20 20 20 20 21 21 21 21 21 21 21 21 22 22 22 23 24 24 25 25 26 27 28 28 28 29 30 32 35 37 39 41 40
13 16 17 19 25 28 28 24 22 23 25 28 29 30 30 30 28 26 25 25 24 22 20 19 18 19 19 19 19 19 19 18 17 16 15 14 13 12 10 9 9 9 10 10 10 11 12 12 13 15 16 17 17 18 18 18 19 19 20 20 20 21 21 20 20 21 21 21 22 22 23 23 24 24 24 25 25 26 25 26 26 28 30 31 32 32 25
12 15 17 19 23 26 27 25 21 21 23 26 27 28 29 30 28 26 25 24 23 22 21 20 18 18 18 18 18 18 18 18 18 17 15 14 13 11 9 8 7 7 8 8 8 9 9 10 11 12 13 14 15 16 17 17 18 19 19 19 19 19 20 20 20 20 21 21 21 22 22 22 21 21 21 22 23 23 23 23 23 24 24 25 25 22 15
12 14 16 19 22 25 26 24 20 19 21 23 25 26 27 28 28 27 26 25 24 23 22 21 20 18 18 17 15 14 14 15 15 15 14 14 13 12 10 9 8 7 7 8 8 8 9 10 11 11 12 13 14 14 15 16 17 18 19 19 19 19 19 20 20 20 20 21 21 21 21 20 20 20 20 20 21 21 20 20 20 21 20 20 16 11 8
11 13 15 18 20 23 25 23 18 17 19 22 23 25 26 27 27 27 25 24 23 23 22 21 20 19 18 16 15 13 12 11 11 11 12 12 13 12 11 10 10 9 9 9 9 10 11 12 12 13 13 14 14 15 15 16 16 17 18 19 19 19 19 19 20 20 20 20 20 20 20 20 19 19 19 19 19 19 18 17 17 18 17 16 12 6 2
11 12 14 16 18 21 23 21 18 16 17 19 21 23 24 26 28 27 25 23 21 21 20 19 19 18 17 16 15 14 13 12 12 11 11 11 11 11 11 10 11 11 10 10 11 12 13 13 14 14 14 15 15 15 16 16 16 17 17 18 18 18 19 19 19 20 20 20 20 20 19 19 19 18 18 18 18 17 17 16 16 15 14 13 11 7 5
12 12 13 15 16 18 20 19 18 17 16 16 17 19 21 23 25 26 24 22 21 20 18 17 17 17 17 16 15 14 14 13 13 12 10 10 9 9 8 9 9 10 10 11 12 14 14 14 14 14 14 15 15 16 16 16 16 17 17 17 17 17 18 19 19 20 20 20 20 20 19 19 19 18 18 18 17 16 16 16 16 14 12 11 10 7 6
14 13 14 15 16 16 17 17 16 16 15 14 14 16 18 19 21 22 22 20 19 18 18 17 16 16 16 16 15 15 14 13 12 11 9 8 8 7 7 8 9 9 10 11 12 13 14 14 14 14 15 15 16 16 16 16 16 16 16 16 17 17 17 18 19 19 19 19 19 19 19 19 19 19 19 19 18 17 16 16 15 14 13 12 10 9 7
18 17 16 16 15 15 15 15 14 14 13 12 12 14 16 18 19 20 21 19 16 15 16 16 15 15 15 14 14 13 12 12 11 10 9 8 8 7 7 8 8 8 9 10 11 12 13 13 13 14 15 15 15 15 15 15 16 16 16 16 16 16 17 17 18 19 19 20 20 20 20 20 20 20 20 20 20 19 18 16 15 15 14 13 11 10 9
19 18 17 16 15 14 14 14 13 14 14 13 13 13 14 16 17 19 19 18 16 14 14 14 13 13 13 13 13 12 11 10 10 9 9 8 8 7 7 7 7 8 8 9 10 10 11 12 12 13 13 13 13 13 13 13 13 14 14 14 15 15 16 16 17 18 18 19 19 19 20 20 20 20 20 20 19 19 18 17 16 15 15 14 13 12 12
21 19 19 18 17 16 16 16 15 15 15 14 13 13 14 15 17 17 18 18 16 14 13 13 12 11 11 12 12 11 10 9 8 8 7 7 7 7 7 7 7 7 7 8 8 9 10 10 11 11 11 11 11 11 11 11 11 11 12 12 13 14 15 15 15 15 16 16 17 17 18 18 19 19 19 19 18 19 18 18 17 17 16 16 16 15 15
24 23 22 22 21 20 20 19 18 17 17 17 16 16 17 18 19 18 18 17 16 15 14 13 12 10 10 10 10 9 8 7 6 6 5 5 6 6 7 6 6 6 6 6 7 8 8 10 10 10 10 10 10 9 9 9 10 10 11 11 12 13 13 13 14 14 14 14 15 15 16 16 17 17 18 18 19 19 19 18 18 17 18 17 17 16 15
24 24 24 24 24 23 22 21 20 19 19 18 18 17 17 18 18 18 17 16 15 14 13 12 11 10 9 9 8 8 7 6 5 5 4 4 4 4 5 5 5 5 5 5 6 7 8 10 10 10 9 8 8 8 8 9 9 10 10 11 11 12 12 12 13 13 13 13 14 14 15 15 15 16 17 17 18 18 18 19 19 19 18 19 18 18 17
22 22 22 22 23 23 23 21 20 19 18 17 17 17 17 16 16 15 15 14 13 12 12 11 10 9 7 7 7 6 6 5 5 4 4 4 3 3 3 4 5 5 6 6 7 8 9 10 10 10 9 8 8 8 8 9 9 9 10 10 11 11 11 11 12 12 13 13 14 14 14 14 14 14 15 16 17 17 18 18 19 20 20 20 19 19 19
19 19 19 19 19 20 19 19 18 17 17 15 15 14 13 13 12 12 11 11 10 10 9 9 9 7 6 6 6 5 4 3 3 3 3 3 4 4 4 5 5 6 7 7 8 9 10 10 10 10 9 9 9 9 9 10 10 10 10 10 10 11 11 11 11 12 12 13 13 13 14 14 13 13 13 14 15 16 16 17 17 18 19 19 19 19 19
16 15 15 15 15 15 15 15 15 14 13 12 11 10 9 9 8 8 7 7 7 7 6 6 6 5 5 5 5 4 3 2 2 2 3 3 4 4 5 5 6 7 8 8 9 9 10 10 10 10 10 10 10 10 10 10 10 10 10 10 11 11 11 11 11 12 12 12 12 13 13 13 13 12 12 12 13 14 14 14 15 14 15 15 16 17 17
14 13 12 11 11 10 10 10 10 10 9 9 8 7 6 6 5 5 4 4 4 4 4 4 3 3 3 3 3 3 3 2 2 3 4 4 5 5 6 7 7 8 8 8 9 9 10 10 10 10 10 10 10 10 11 11 11 11 11 11 11 11 11 12 12 12 12 12 12 12 12 12 12 12 12 11 11 12 12 12 12 12 11 11 12 13 15
13 12 11 10 9 8 7 7 7 7 6 6 6 6 5 5 4 4 3 3 3 3 3 2 2 2 2 2 2 3 4 3 4 4 5 6 6 7 7 8 8 8 8 8 9 9 10 10 10 10 10 10 11 11 11 11 12 12 12 12 12 12 12 12 12 12 12 12 12 12 12 12 12 12 12 11 11 11 11 11 11 11 10 10 11 12 14
12 11 10 9 9 8 7 6 5 5 5 5 4 4 4 4 4 4 3 3 3 3 2 2 2 2 2 3 3 4 4 4 5 6 6 7 7 7 8 8 8 8 8 8 9 9 10 10 10 10 11 11 11 12 12 12 13 13 13 13 13 13 13 13 13 13 13 13 13 13 13 13 13 13 13 12 12 12 12 12 11 11 10 10 10 12 13
10 9 9 8 8 7 7 5 4 3 3 3 2 2 2 2 3 3 3 3 3 2 2 2 2 3 3 3 4 4 4 5 5 6 6 7 7 7 8 8 8 8 8 8 9 10 10 10 11 11 11 11 12 12 12 13 13 13 14 14 14 14 15 15 15 14 14 14 14 14 14 13 13 13 13 13 13 13 13 12 12 11 10 9 10 11 13
9 9 8 7 7 7 6 6 5 4 3 2 1 1 0 1 1 1 1 1 2 2 2 2 3 3 4 4 4 4 5 5 5 6 6 7 7 7 8 8 8 9 9 10 10 11 11 12 12 12 12 13 13 13 13 13 14 14 14 15 15 15 15 16 16 15 15 15 15 15 15 15 14 14 14 14 14 14 14 14 13 13 11 11 12 14 15
9 8 8 7 6 6 6 5 5 4 4 3 2 2 1 1 1 1 1 2 2 3 3 3 3 4 5 5 5 6 6 6 6 7 7 8 8 8 9 9 10 10 10 11 11 12 12 13 13 13 13 14 14 14 14 15 15 15 15 15 15 15 16 16 16 16 16 16 16 16 16 16 16 16 15 15 15 15 15 15 15 15 15 14 14 15 17
Wind_Direction
228 229 229 228 227 228 230 231 231 231 231 230 230 231 230 227 231 237 234 231 235 236 234 235 236 235 236 235 234 239 243 238 228 224 225 227 230 234 236 237 234 231 232 233 233 233 234 231 229 227 227 225 223 223 223 223 224 224 224 223 223 224 225 227 229 229 229 231 233 233 234 235 236 238 240 241 242 242 241 239 237 236 236 237 237 237 236
229 229 230 229 229 231 232 233 232 232 232 232 233 234 234 233 236 239 238 235 236 237 237 237 239 240 242 243 244 246 244 237 229 225 226 229 235 240 241 240 237 234 234 234 234 234 235 233 230 228 228 226 224 223 224 224 224 225 224 224 224 225 227 228 229 229 230 231 233 233 234 235 237 238 240 241 242 242 242 241 238 237 237 237 237 237 236
230 230 229 230 232 234 236 235 233 232 232 233 233 233 235 237 238 240 241 240 239 238 240 242 242 244 245 245 244 243 240 237 235 236 240 243 246 247 244 241 239 236 236 236 236 236 236 235 233 229 228 226 225 224 224 225 225 225 226 226 226 227 228 229 228 229 231 232 233 234 234 236 237 238 240 242 243 243 243 242 240 239 238 237 238 238 238
230 229 231 234 237 239 238 235 233 233 232 233 234 234 234 236 238 239 240 242 241 240 242 244 243 242 242 242 242 242 243 242 242 244 247 249 250 249 246 242 239 236 236 236 236 237 237 236 234 232 229 227 225 224 224 225 226 226 227 227 227 229 230 229 228 229 231 232 233 234 235 236 237 238 240 242 243 242 242 242 241 240 239 238 239 239 240
229 230 233 237 239 238 236 234 233 233 234 235 237 237 236 235 237 239 240 241 242 241 240 242 242 241 241 241 242 244 245 244 244 245 247 247 248 247 244 242 240 238 237 236 236 238 238 235 232 231 229 227 225 224 224 225 225 226 227 228 228 229 230 229 229 229 230 232 233 235 235 236 237 238 240 242 243 243 243 242 242 241 240 240 240 240 241
230 231 235 237 235 232 231 230 230 233 235 237 239 239 239 237 237 240 243 243 242 239 237 239 240 241 241 242 243 245 245 244 244 245 246 247 247 246 244 243 242 241 238 237 237 238 237 235 232 229 228 227 225 224 224 224 224 226 228 229 229 230 230 230 230 229 230 232 233 235 236 236 237 238 240 242 243 243 244 243 242 242 242 241 242 242 242
229 231 232 232 229 229 230 229 229 232 233 235 240 241 241 241 241 242 243 242 240 237 237 237 239 241 242 243 243 243 242 242 243 245 246 246 246 245 245 244 243 242 241 240 240 239 238 236 231 229 228 228 226 224 224 224 225 226 228 229 230 231 231 231 231 231 231 232 233 235 236 237 238 239 240 241 243 244 244 244 243 243 243 243 243 243 243
227 227 226 227 229 234 235 230 229 232 232 235 240 239 236 239 242 243 244 244 243 241 240 240 241 242 243 243 240 238 238 240 242 244 246 247 246 246 245 245 244 243 242 243 242 241 238 235 231 229 229 228 226 225 225 226 227 228 229 230 230 231 231 232 232 232 232 233 234 236 237 238 239 240 241 242 242 243 244 244 244 244 245 245 245 245 245
226 227 228 230 235 239 236 230 230 233 233 235 238 238 236 236 239 243 244 246 247 247 246 245 244 244 244 242 238 235 236 238 241 244 245 246 247 247 246 246 245 244 243 244 243 242 239 234 230 229 229 227 226 226 227 228 229 230 230 231 231 231 232 232 232 232 233 234 236 237 238 239 240 241 242 242 242 242 244 245 245 245 246 246 246 246 246
226 228 230 231 233 234 230 228 231 233 233 235 236 238 238 236 238 243 244 245 248 249 248 248 244 242 243 243 238 234 235 238 241 243 245 246 247 247 248 248 247 245 244 244 243 241 238 233 230 230 230 229 228 228 229 230 231 231 231 232 232 232 232 232 232 233 234 236 237 238 239 240 241 241 242 243 243 244 245 246 247 247 247 247 248 248 248
226 226 228 229 230 229 225 226 230 232 232 233 235 239 240 237 241 246 245 246 249 248 249 248 243 240 242 243 239 235 235 238 241 242 244 245 247 248 248 249 248 246 245 243 241 240 237 234 232 232 232 231 230 230 230 231 233 233 233 233 232 232 232 232 233 235 236 237 238 238 239 240 241 242 242 243 244 245 246 248 249 249 249 248 248 249 249
228 228 229 230 230 229 226 226 231 232 231 231 234 238 238 237 242 246 246 248 249 248 250 248 242 240 243 245 243 238 237 239 240 241 243 243 246 248 248 248 246 244 243 241 238 238 237 235 234 233 233 234 233 233 233 234 235 236 236 234 233 233 234 235 237 239 239 240 239 238 239 240 242 243 243 243 245 246 248 249 250 251 251 250 249 248 248
228 229 231 232 232 231 228 228 232 233 232 233 234 235 236 237 241 245 246 247 248 249 249 247 243 243 245 247 245 240 238 240 240 240 240 240 242 244 246 247 244 240 239 238 236 237 236 234 232 231 232 234 235 235 236 238 239 239 238 236 235 235 237 239 240 241 242 241 239 238 239 240 242 243 245 246 247 248 249 250 250 251 252 252 250 248 247
228 229 232 234 234 232 227 227 232 233 233 235 236 237 238 239 241 244 245 245 247 250 249 247 245 245 245 244 243 240 240 241 240 240 240 239 239 240 241 245 243 238 235 235 235 237 236 234 232 231 231 234 236 237 238 240 242 241 240 238 238 239 240 241 242 242 242 240 239 239 240 241 242 245 247 248 250 250 251 251 251 251 252 252 251 251 250
227 229 230 232 233 232 227 226 230 233 235 238 240 241 242 242 242 244 245 244 246 248 250 247 244 242 242 241 240 238 238 239 241 243 243 241 240 239 239 240 241 238 235 233 234 236 237 236 235 234 234 236 238 239 241 243 244 243 241 241 241 241 243 244 244 244 242 239 239 241 243 243 244 247 249 249 250 251 251 250 251 252 253 253 253 253 252
224 226 228 229 232 234 232 230 231 233 236 239 240 241 243 243 243 243 244 245 245 245 248 246 241 239 240 239 238 237 236 237 240 243 244 243 241 240 238 237 237 236 235 234 234 236 236 236 237 237 237 237 239 241 244 246 246 244 243 243 243 244 245 246 246 245 242 241 241 242 244 245 246 248 250 250 250 251 251 251 252 253 253 253 254 255 255
226 228 230 232 235 237 236 235 233 232 234 237 239 240 242 243 243 242 242 245 245 243 244 244 241 238 238 238 237 235 235 236 239 240 242 243 242 240 239 238 236 236 236 236 235 234 234 235 236 238 238 238 239 243 246 247 247 246 245 245 245 245 246 246 246 245 244 243 244 244 245 246 247 249 251 251 251 251 251 252 253 254 255 255 255 256 256
231 232 231 231 234 236 235 235 234 232 233 235 238 240 242 243 243 242 241 243 244 242 239 238 238 237 236 236 236 235 234 235 236 237 239 241 242 241 240 239 238 236 235 236 237 236 237 238 239 240 242 242 243 246 248 249 249 249 248 246 246 246 246 246 246 245 246 246 247 247 248 249 250 251 252 252 253 253 252 252 253 255 256 256 255 256 256
233 231 229 228 232 234 234 234 234 234 234 234 236 239 242 243 242 242 240 240 241 240 236 234 234 235 235 235 235 233 232 232 233 235 238 240 241 241 241 240 240 238 236 238 239 239 241 243 244 245 246 247 248 248 250 251 251 250 249 248 248 248 248 248 248 248 249 249 250 251 252 252 253 253 253 254 255 254 254 254 254 255 256 256 256 257 257
232 232 232 232 233 235 235 234 233 233 233 232 233 237 242 242 240 239 239 237 235 235 236 234 233 233 234 234 233 232 230 230 231 233 235 237 240 242 242 242 242 241 240 240 240 241 243 245 247 248 249 250 251 251 252 252 252 251 250 250 250 250 250 251 251 251 252 253 254 256 256 256 257 257 256 256 256 256 256 256 256 256 256 256 256 257 257
234 233 232 231 231 232 232 232 231 231 231 231 232 235 239 240 238 236 236 234 231 229 231 232 231 231 231 231 233 233 231 230 231 232 234 236 238 241 243 244 244 243 243 243 242 242 243 245 247 249 249 251 252 253 254 254 254 253 252 252 252 252 253 253 253 254 255 256 257 258 259 259 259 259 259 258 258 259 259 258 258 258 258 258 257 257 257
234 230 228 227 228 229 229 231 232 231 230 231 232 233 235 237 237 236 234 233 231 229 228 229 230 230 229 229 230 232 233 232 232 232 233 235 238 241 243 244 244 244 244 244 244 244 245 246 247 248 249 251 252 254 255 256 256 255 254 253 253 253 254 254 255 255 256 257 259 260 260 261 261 262 262 261 261 262 262 262 262 262 261 261 261 260 259
233 230 229 229 230 230 232 235 235 232 229 230 230 230 231 231 232 233 233 232 232 231 230 230 230 229 229 228 228 230 233 234 234 233 233 235 237 241 244 244 245 245 244 245 246 247 247 249 249 249 250 251 252 253 255 257 258 258 256 255 255 255 255 255 255 257 258 260 262 263 263 264 264 264 264 264 264 265 265 265 265 264 264 263 263 262 261
235 232 231 231 231 231 232 236 236 232 229 228 227 226 227 226 226 228 229 229 230 229 228 228 229 228 227 227 227 228 232 234 234 233 233 235 237 241 244 247 248 248 247 248 249 251 251 251 251 251 252 252 253 255 257 259 259 259 258 257 256 256 256 256 257 258 260 261 263 264 264 265 265 265 266 266 267 268 268 268 267 267 266 265 264 263 262
234 231 230 229 230 231 232 234 234 231 228 227 224 222 222 222 222 222 222 223 224 223 220 220 223 224 223 223 224 227 230 233 233 232 231 233 237 240 244 248 249 250 249 250 252 253 253 253 253 252 252 254 256 258 260 262 261 260 259 258 257 257 258 258 260 261 262 263 265 266 266 267 267 267 268 268 269 271 272 272 272 271 270 268 267 265 263
233 231 229 229 229 230 231 231 231 228 225 223 221 219 219 218 216 216 216 217 218 217 215 214 217 220 220 220 222 225 228 231 233 232 231 234 237 241 245 248 249 249 249 249 252 253 253 253 253 253 254 257 259 261 262 262 262 261 260 259 259 260 260 260 262 264 265 266 266 267 267 268 269 270 271 272 273 274 275 276 277 277 276 273 271 268 265
232 228 226 224 224 226 226 226 225 224 222 220 218 216 216 216 213 212 213 213 212 211 210 212 215 217 218 219 220 224 227 230 231 230 230 232 236 241 245 247 248 248 249 250 251 252 253 254 255 255 256 258 260 262 262 262 262 262 262 261 261 262 262 262 264 265 266 266 266 267 268 269 270 271 273 274 275 277 279 281 282 282 281 279 277 273 269
233 227 222 219 219 222 223 221 220 219 218 216 215 213 214 214 213 211 209 209 209 210 211 212 215 216 216 218 220 222 225 227 226 225 227 230 236 242 246 247 247 246 246 248 249 251 254 257 257 256 258 260 261 262 263 264 265 265 265 265 265 265 265 265 265 265 265 265 266 267 269 270 271 272 273 275 277 280 282 284 286 286 286 286 284 280 274
232 223 219 217 218 219 217 214 213 213 213 212 212 212 212 211 209 209 209 208 208 210 213 216 218 218 218 220 221 221 223 224 223 223 227 232 237 243 246 244 242 241 242 246 249 252 255 258 258 258 260 262 263 264 264 264 266 266 266 266 266 265 265 265 264 264 265 265 266 268 270 271 273 274 276 278 281 283 284 287 289 290 291 293 293 287 279
215 208 211 214 213 210 207 204 205 206 208 208 209 210 210 208 207 208 210 209 208 210 213 216 219 220 221 223 223 222 222 221 221 223 227 230 235 241 243 241 239 240 243 248 252 254 256 258 259 260 262 263 265 265 265 264 265 265 265 264 264 264 264 264 263 264 265 266 268 270 271 272 274 276 278 281 282 284 287 291 294 296 299 302 300 294 285
204 199 204 206 202 200 199 199 200 201 203 205 205 205 206 206 205 206 207 208 208 209 210 213 217 219 220 222 223 221 219 219 220 222 225 230 236 241 242 240 238 240 245 250 254 256 258 260 262 264 265 265 266 266 266 265 264 263 263 263 263 264 264 265 265 265 267 268 269 270 271 273 275 278 280 281 283 286 291 295 299 304 309 312 310 304 294
209 202 201 197 193 192 193 194 195 198 200 201 202 202 202 202 202 203 205 207 207 207 208 211 214 215 215 216 217 217 216 218 221 222 226 232 235 233 231 230 233 239 246 252 258 262 264 267 270 271 270 269 267 266 266 265 264 264 265 265 264 264 265 265 265 266 267 269 270 271 272 275 277 279 280 282 283 287 292 297 303 310 316 320 324 324 313
201 197 196 193 190 189 190 190 193 195 195 196 198 199 201 202 202 203 203 204 206 207 208 208 209 209 209 209 211 213 215 217 221 225 229 230 227 221 220 227 235 242 248 254 262 269 272 275 278 278 278 277 273 270 267 265 265 265 265 265 265 265 265 264 264 265 267 269 270 272 274 276 277 279 281 282 285 288 293 298 304 311 317 324 333 345 356
193 191 189 188 187 187 186 187 189 192 193 194 194 195 197 199 201 201 201 201 203 205 206 207 208 208 207 206 204 205 208 212 217 222 223 220 217 218 226 234 238 246 256 260 264 270 275 277 279 281 284 286 283 277 272 269 266 265 264 264 264 265 264 264 264 265 267 270 271 273 274 275 276 278 280 282 285 288 293 299 304 308 316 326 334 350 31
177 178 180 182 184 185 185 185 187 188 190 192 194 194 195 196 197 198 198 199 202 203 205 206 207 208 208 208 205 202 204 209 213 214 211 210 215 225 236 242 247 255 263 265 265 271 277 280 280 281 283 285 285 282 279 275 270 267 266 265 264 264 264 264 264 265 267 269 271 272 273 273 274 276 279 281 284 287 290 296 302 305 311 322 329 323 324
154 162 169 174 177 180 182 183 182 180 183 189 194 196 196 196 196 197 198 200 202 203 202 203 204 205 206 207 208 209 213 217 220 220 218 219 227 236 244 249 254 258 260 262 265 270 277 282 283 283 282 282 281 280 280 278 273 269 268 266 265 265 264 265 266 267 268 270 272 273 274 273 272 274 277 278 280 284 285 287 292 298 303 310 317 311 283
133 141 153 162 167 171 175 179 179 178 178 182 187 191 193 194 195 197 197 198 199 200 200 201 203 205 205 206 207 209 212 215 218 221 224 227 233 239 247 254 258 257 256 259 264 268 274 281 285 284 282 281 279 278 279 278 274 269 267 267 266 266 265 265 267 269 270 272 274 274 274 273 272 272 274 275 277 280 281 280 281 283 286 291 296 298 287
115 117 130 144 151 157 163 169 173 174 175 176 180 184 187 189 190 191 191 190 190 192 193 193 195 199 202 204 204 206 208 212 216 220 223 227 234 243 252 258 258 255 255 259 265 270 277 284 287 285 283 283 281 279 279 279 276 271 268 267 266 266 266 267 268 270 271 272 274 274 274 274 273 271 271 274 275 275 275 276 276 275 273 272 274 274 274
105 103 110 122 131 140 148 155 160 164 166 166 168 171 174 177 179 182 184 184 182 182 184 186 188 192 197 201 202 202 204 209 214 219 223 228 234 240 246 252 253 254 258 265 272 279 286 290 290 286 286 286 284 281 280 281 278 274 270 268 267 268 269 270 271 273 273 273 274 274 274 274 273 272 272 273 273 271 271 271 271 269 265 263 262 262 263
99 99 102 107 113 124 134 138 141 144 146 145 145 149 159 166 171 175 178 178 175 172 173 176 180 186 192 198 201 202 205 209 215 219 223 228 231 234 240 249 257 263 269 275 281 287 295 299 295 289 287 288 286 285 285 286 283 278 274 271 270 272 274 275 276 277 278 277 277 276 275 273 272 271 271 270 270 270 270 269 265 262 260 259 257 256 256
92 95 100 104 107 114 121 124 125 127 131 131 129 129 135 145 154 161 167 169 168 166 162 161 163 170 178 184 188 192 198 205 211 216 220 225 232 238 243 252 263 269 275 282 286 291 301 308 303 295 290 290 290 292 293 292 290 285 280 277 277 278 280 282 283 283 283 282 281 279 278 276 273 270 269 268 268 269 270 268 264 260 258 256 256 255 254
85 88 94 100 104 107 111 114 117 121 124 126 124 122 124 129 135 141 147 153 157 157 155 152 148 147 153 162 170 176 183 193 201 208 214 222 233 238 240 247 260 270 278 286 287 290 301 310 309 303 297 293 294 299 301 298 294 290 286 284 284 285 286 287 287 287 285 284 283 283 282 280 277 274 270 267 267 268 268 267 265 262 257 253 252 252 248
81 84 88 93 96 99 101 104 107 112 117 120 120 120 121 123 125 127 130 136 141 146 149 151 149 144 143 150 159 167 173 180 186 193 200 206 217 224 227 237 255 272 284 289 290 295 303 306 308 310 310 305 303 306 305 300 296 294 291 289 289 289 288 287 286 285 284 283 283 283 283 282 280 278 274 270 269 268 266 264 263 262 258 255 253 250 245
77 81 85 87 90 94 98 99 100 103 108 111 113 115 118 120 122 123 126 128 131 135 140 146 148 146 144 146 153 160 166 171 176 183 191 199 212 230 244 255 269 283 292 294 297 302 305 305 307 311 314 313 312 310 305 299 298 297 296 294 292 291 289 287 285 284 284 283 282 282 283 282 282 281 278 275 273 273 271 267 265 262 260 258 255 250 243
71 75 77 79 81 87 93 97 100 102 105 106 109 113 116 117 119 121 123 125 128 131 135 140 144 146 144 143 145 149 154 163 178 196 208 218 231 251 269 279 286 293 298 301 302 303 304 306 310 312 311 310 310 307 301 298 298 298 298 298 297 295 293 291 288 286 286 286 285 284 284 283 283 283 282 280 278 277 276 274 270 266 262 258 253 247 239
67 71 73 74 77 81 87 91 96 100 102 103 107 114 119 121 123 123 124 127 131 135 137 140 144 149 152 154 156 159 162 171 196 222 232 237 248 265 280 289 294 300 304 304 302 301 302 307 311 312 309 307 305 301 297 296 297 297 297 297 298 297 296 295 293 291 290 289 289 289 288 287 286 286 287 285 283 281 280 279 276 272 266 258 251 243 237
61 65 67 69 72 77 81 83 86 90 95 102 112 120 126 132 140 144 141 140 144 151 154 151 152 160 174 187 201 214 219 222 240 260 266 267 271 280 290 295 297 299 302 303 303 304 306 308 310 311 310 307 302 298 296 297 297 297 297 297 297 296 297 296 294 293 292 292 292 291 291 290 289 288 287 287 286 284 284 283 280 276 269 256 243 235 230
54 56 57 59 62 64 66 69 73 78 88 103 117 128 136 143 152 162 167 164 162 167 173 175 181 198 217 232 253 267 268 264 266 274 280 283 285 289 295 299 300 300 299 300 303 307 310 311 311 310 310 306 301 298 298 299 297 296 297 297 297 297 297 296 295 293 293 293 293 292 292 292 291 289 287 286 283 281 280 279 276 270 264 253 241 233 229
42 43 45 47 46 44 44 48 56 65 77 89 104 122 138 147 153 164 178 185 184 184 189 205 228 247 258 268 279 285 285 280 275 276 281 286 290 292 293 297 301 301 298 295 296 301 307 311 311 310 307 303 300 298 298 298 298 297 297 296 296 296 296 296 296 295 293 292 292 292 291 291 291 289 287 286 283 280 278 277 274 269 264 257 247 239 233
31 31 32 32 30 28 28 30 32 37 48 63 79 102 125 137 144 156 174 189 196 203 215 232 248 257 263 266 269 273 277 279 280 280 282 285 288 290 290 292 295 298 298 295 294 297 300 304 306 305 303 300 299 298 297 296 296 296 296 295 294 294 294 295 295 296 294 293 292 291 290 290 289 288 287 286 284 282 280 278 276 272 265 254 245 242 239
17 17 17 17 16 17 19 18 14 11 10 13 17 36 119 149 159 176 205 223 227 232 240 251 262 269 270 270 270 272 275 279 282 285 286 287 287 289 292 294 295 297 298 298 296 296 297 298 300 300 299 297 297 298 299 298 296 295 295 295 293 293 292 293 293 293 294 293 291 290 290 289 288 287 286 285 284 282 280 278 276 274 266 255 247 245 245
6 4 1 360 360 2 4 3 1 357 353 347 342 334 319 263 225 239 266 274 269 264 261 263 270 276 278 277 277 279 281 283 286 288 289 290 290 290 292 293 294 295 295 295 295 295 296 296 297 298 299 297 296 297 298 299 298 297 296 296 294 293 293 292 292 291 291 291 290 289 288 287 287 286 285 284 283 282 280 277 276 274 271 265 258 253 250